This demonstration page uses our WeatherBlox Daily Observations layout. Learn more.

38.89511, -77.03637

Hourly Observations for September 25, 2019

Temp ( °F °C ) Dew Point ( °F °C ) Humidity (%) Winds ( mph kmh ) Pressure ( in mb ) Visibility ( mi km ) Precip ( " mm )
12:52 am 00:52 Mostly Clear 65 18.3 50 10 59 59 N 6 9 29.91 1013 10 16.09344 0 0
1:52 am 01:52 Mostly Clear 66 18.9 51 10.6 59 59 N 3 6 29.91 1013 10 16.09344 0 0
2:52 am 02:52 Mostly Clear 63 17.2 53 11.7 70 70 N 7 11 29.88 1012 10 16.09344 0 0
3:52 am 03:52 Partly Cloudy 62 16.7 52 11.1 70 70 N 6 9 29.91 1013 10 16.09344 0 0
4:52 am 04:52 Partly Cloudy 62 16.7 53 11.7 73 73 N 5 7 29.91 1013 10 16.09344 0 0
5:52 am 05:52 Mostly Clear 62 16.7 51 10.6 67 67 SSW 3 6 29.94 1014 10 16.09344 0 0
6:52 am 06:52 Mostly Cloudy 61 16.1 52 11.1 72 72 N 6 9 29.94 1014 10 16.09344 0 0
7:52 am 07:52 Mostly Cloudy 64 17.8 53 11.7 68 68 Calm 29.94 1014 10 16.09344 0 0
8:52 am 08:52 Mostly Cloudy 68 20 54 12.2 61 61 NNE 5 7 29.97 1015 10 16.09344 0 0
9:52 am 09:52 Mostly Cloudy 70 21.1 54 12.2 57 57 ESE 3 6 29.97 1015 10 16.09344 0 0
10:52 am 10:52 Partly Cloudy 74 23.3 54 12.2 50 50 ESE 5 7 29.97 1015 10 16.09344 0 0
11:52 am 11:52 Partly Cloudy 78 25.6 51 10.6 39 39 VRB 6 9 29.94 1014 10 16.09344 0 0
12:52 pm 12:52 Mostly Sunny 80 26.7 49 9.4 34 34 SE 6 9 29.91 1013 10 16.09344 0 0
1:52 pm 13:52 Mostly Sunny 82 27.8 48 8.9 31 31 SSW 13 20 29.88 1012 10 16.09344 0 0
2:52 pm 14:52 Mostly Sunny 82 27.8 48 8.9 31 31 SSW 8 13 29.85 1011 10 16.09344 0 0
3:52 pm 15:52 Mostly Sunny 82 27.8 51 10.6 34 34 S 13 20 29.85 1011 10 16.09344 0 0
4:52 pm 16:52 Mostly Sunny 81 27.2 53 11.7 38 38 SSE 12 19 29.85 1011 10 16.09344 0 0
5:52 pm 17:52 Mostly Sunny 81 27.2 53 11.7 38 38 S 12 19 29.83 1010 10 16.09344 0 0
6:52 pm 18:52 Mostly Cloudy 78 25.6 53 11.7 42 42 S 8 13 29.85 1011 10 16.09344 0 0
7:52 pm 19:52 Mostly Cloudy 76 24.4 56 13.3 50 50 S 7 11 29.85 1011 10 16.09344 0 0
8:52 pm 20:52 Partly Cloudy 73 22.8 57 13.9 57 57 S 8 13 29.85 1011 10 16.09344 0 0
9:52 pm 21:52 Partly Cloudy 72 22.2 56 13.3 57 57 S 12 19 29.85 1011 10 16.09344 0 0
10:52 pm 22:52 Mostly Clear 71 21.7 57 13.9 61 61 S 10 17 29.88 1012 10 16.09344 0 0
11:52 pm 23:52 Mostly Clear 70 21.1 57 13.9 64 64 S 9 15 29.88 1012 10 16.09344 0 0

Powered by AerisWeather